EHI
7 6 5 3 1 0 0 0 0 0 0 0 0 0 0 1 1 1 1 2 3 4 4 4 3 2 1 0 0 0 0 0 0 0 0 0 0 0 0 0 0 1 1
6 5 4 2 1 0 0 0 0 0 0 0 0 1 1 2 2 1 2 3 3 4 5 4 3 2 2 1 0 0 0 0 0 0 0 0 0 0 0 0 0 0 1
4 3 2 1 0 0 0 0 0 0 0 0 0 1 2 2 1 2 2 2 3 4 4 3 1 1 1 1 0 0 0 0 0 0 0 0 0 0 0 0 0 0 1
3 3 1 1 0 0 0 0 0 0 0 0 1 1 1 1 0 1 1 1 1 2 2 2 0 0 0 0 0 0 0 0 0 1 1 1 0 0 0 0 0 0 1
3 2 1 1 1 0 1 2 2 1 0 0 1 2 1 0 0 0 0 0 0 0 1 1 1 0 0 0 0 0 0 0 0 1 2 1 0 0 0 0 0 0 0
2 1 1 1 1 0 2 3 2 1 0 0 1 1 1 0 0 0 0 0 0 0 0 1 1 0 0 0 0 0 0 0 0 1 1 1 0 0 0 0 0 0 0
1 0 0 0 0 0 1 1 1 0 0 0 0 0 0 0 0 0 0 0 0 0 0 1 1 0 0 0 0 0 0 0 0 0 0 0 0 0 0 0 0 0 0
0 0 0 0 0 0 0 0 0 0 0 0 0 0 0 0 0 0 0 0 0 0 0 0 0 0 0 0 0 0 0 0 0 0 0 0 0 0 0 0 0 0 0
0 0 0 0 0 0 0 0 0 0 0 0 0 0 0 0 0 0 0 0 0 0 0 0 0 0 0 0 0 0 0 0 0 0 0 0 0 0 0 0 0 0 0
0 0 0 0 0 0 0 0 0 0 0 0 0 1 1 0 0 0 0 0 0 0 0 0 0 0 0 0 0 0 0 0 0 0 0 1 1 1 0 0 0 0 0
0 0 0 0 0 0 0 0 0 0 0 0 0 1 1 0 0 0 0 0 0 0 0 0 0 0 0 0 0 0 0 0 0 0 0 1 1 1 0 0 0 0 0
0 0 0 0 0 0 0 0 0 0 0 0 0 1 1 0 0 0 0 0 0 0 0 0 0 0 0 0 0 0 0 0 0 0 0 1 1 0 0 0 0 0 0
0 0 0 0 0 0 0 0 0 0 0 0 0 0 0 0 0 0 0 0 0 0 0 0 0 0 0 0 0 0 0 0 0 0 1 2 1 0 0 0 0 0 0
0 0 0 0 0 0 0 0 0 0 0 0 0 0 0 0 0 0 0 0 0 0 0 0 0 0 0 0 0 0 0 0 0 0 1 2 2 0 0 0 0 0 0
0 0 0 0 0 0 0 0 0 0 0 0 0 0 0 0 0 0 0 0 0 0 0 0 0 0 0 0 0 0 0 0 0 0 0 1 1 0 0 0 0 0 0
0 0 0 0 0 0 0 0 0 0 0 0 0 0 0 0 0 0 0 0 0 0 0 0 0 0 0 0 0 0 0 0 0 0 0 0 0 0 0 0 0 0 0
0 0 0 0 0 0 0 0 0 0 0 0 0 0 0 0 0 0 0 0 0 0 0 0 0 0 0 0 0 0 0 0 0 0 0 0 0 0 0 0 0 0 0
0 0 0 0 0 0 0 0 0 0 0 0 0 0 0 0 0 0 0 0 0 0 0 0 0 0 0 0 0 0 0 0 0 0 0 0 0 0 0 0 0 0 0
0 0 0 0 0 0 0 0 0 0 0 0 0 0 0 0 0 0 0 0 0 0 0 0 0 0 0 0 0 0 0 0 0 0 0 0 0 0 0 0 0 0 0
0 0 0 0 0 0 0 0 0 0 0 0 0 0 0 0 0 0 0 0 0 0 0 0 0 0 0 0 0 0 0 0 0 0 0 0 0 0 0 0 0 0 0
0 0 0 0 0 0 0 0 0 0 0 0 0 0 0 0 0 0 0 0 0 0 0 0 0 0 0 0 0 0 0 0 0 0 0 0 0 0 0 0 0 0 0
0 0 0 1 1 1 1 0 0 0 0 0 0 0 0 0 0 0 0 0 0 0 0 0 0 0 0 0 0 0 0 0 0 0 0 0 0 0 0 0 0 0 0
0 0 1 2 2 1 1 0 0 0 0 0 0 0 0 0 0 0 0 0 0 0 0 0 0 0 0 0 0 0 0 0 0 0 0 0 0 0 0 0 0 0 0
1 0 1 3 2 0 1 1 0 0 0 0 0 0 0 0 0 0 0 0 0 0 0 0 0 0 0 0 0 0 0 0 0 0 0 0 0 0 0 0 0 0 0
2 1 2 2 1 0 0 1 0 0 0 0 0 0 0 0 0 0 0 0 0 0 0 0 0 0 0 0 0 0 0 0 0 0 0 0 0 0 0 0 0 0 0
2 2 2 2 1 1 0 1 0 0 0 0 0 0 0 0 0 0 0 0 0 0 0 0 0 0 0 0 0 0 0 0 0 0 0 0 0 0 0 0 0 0 0
Wind_Speed
9 11 10 11 10 10 9 9 9 9 9 9 9 8 8 8 8 7 7 7 7 7 7 7 7 7 7 8 7 7 7 7 7 7 6 5 5 6 7 9 9 7 10
12 12 11 11 10 10 10 10 9 9 9 9 9 8 8 8 8 7 6 6 6 6 6 7 7 7 7 7 7 7 7 7 7 7 7 5 3 5 7 8 9 6 10
13 12 11 11 10 10 10 10 10 10 9 9 8 8 8 8 7 7 6 6 6 6 6 6 6 6 6 6 6 6 7 7 8 9 8 2 2 6 7 8 9 9 9
13 12 11 11 11 11 10 10 10 10 9 9 8 8 7 7 6 6 6 6 6 6 6 5 5 6 6 6 6 6 7 8 9 10 5 2 3 7 8 8 8 8 9
14 13 11 12 11 11 11 10 10 10 9 8 8 7 7 6 6 6 6 6 6 6 6 5 5 5 6 6 6 7 7 8 10 9 3 2 4 6 7 7 7 7 7
13 13 11 12 11 11 11 10 9 9 8 8 7 7 6 6 6 6 6 6 6 6 6 5 5 5 5 5 6 7 8 9 10 5 3 2 4 5 6 6 6 6 6
13 12 11 12 11 11 10 10 9 9 8 7 7 6 5 5 5 5 5 5 6 6 6 5 5 5 5 5 5 6 7 9 7 5 1 2 4 5 5 5 6 6 6
11 12 11 12 12 11 10 10 9 8 7 6 6 5 4 3 2 3 4 5 5 6 6 5 5 6 6 5 6 6 7 8 7 6 2 3 6 5 4 4 5 5 6
8 10 10 10 10 11 11 9 8 7 5 4 3 1 1 2 2 1 2 4 5 6 6 5 6 6 6 6 7 7 8 8 5 5 3 3 6 5 4 3 4 4 5
6 7 8 9 9 9 8 9 8 6 4 3 2 3 4 5 5 4 2 2 3 4 5 5 6 7 8 8 9 8 8 7 5 5 1 4 7 5 4 3 2 3 4
5 4 5 6 6 6 7 9 8 7 5 5 5 6 6 3 2 4 4 3 1 3 5 6 8 9 9 9 10 10 7 4 5 2 2 6 6 5 3 2 2 3 4
5 5 5 5 5 4 3 5 3 4 3 3 1 1 2 2 1 1 4 3 4 6 6 7 10 10 8 5 6 8 4 4 3 0 3 7 6 5 3 2 3 3 4
6 4 5 5 5 4 3 3 1 1 1 1 2 2 2 3 2 1 0 1 3 4 2 3 6 4 3 2 1 3 3 1 1 1 3 7 6 5 3 2 3 3 4
5 4 3 2 4 4 4 2 2 2 1 1 3 3 2 2 2 2 1 2 2 2 2 3 3 4 4 5 4 2 1 1 0 1 3 6 6 5 3 2 3 4 4
6 5 4 2 3 4 4 0 2 3 2 2 2 2 2 2 3 3 2 2 3 3 3 4 4 4 4 4 4 3 2 2 2 1 2 5 5 4 3 3 3 4 4
6 7 5 3 3 3 3 1 2 2 2 2 3 3 3 2 2 2 3 3 3 3 3 3 4 3 3 3 3 3 3 2 1 1 1 3 5 5 4 4 4 4 5
7 7 6 4 3 4 4 3 2 2 2 2 2 3 4 3 3 3 3 3 3 3 4 3 5 4 4 3 3 2 1 1 1 1 1 2 3 5 5 4 5 5 5
7 8 7 4 4 5 4 3 2 3 4 3 3 3 5 4 4 3 3 3 3 3 3 3 2 3 4 3 3 2 1 0 1 1 1 1 2 3 4 5 5 5 5
6 8 8 5 4 5 4 2 2 3 2 2 3 3 4 5 5 4 2 2 4 3 3 5 4 3 3 4 3 2 1 1 1 1 1 1 1 3 3 5 6 6 5
5 7 7 6 4 5 3 2 2 2 1 2 3 3 3 3 4 4 3 3 3 3 3 3 4 4 3 3 4 3 2 1 0 1 1 1 0 1 3 4 4 4 6
5 6 7 7 5 4 2 1 1 1 1 2 2 3 2 2 3 3 3 3 2 2 3 4 3 5 4 3 3 3 2 1 1 1 1 1 0 1 2 3 3 2 3
4 5 6 6 6 5 3 2 2 2 0 2 1 2 1 2 3 4 4 3 3 2 3 3 3 3 3 3 2 2 2 2 3 2 1 1 1 1 1 2 2 2 3
4 3 4 5 6 6 4 2 2 1 1 1 1 1 1 1 1 2 3 3 3 2 2 3 3 4 3 3 2 2 2 2 2 2 2 2 1 1 1 1 2 1 2
4 3 4 5 5 5 5 3 1 1 0 1 1 1 1 2 1 0 2 3 3 2 2 3 3 3 3 3 3 2 1 0 0 1 2 2 2 2 2 1 2 2 2
5 4 4 4 5 5 4 3 1 0 1 0 1 1 1 1 2 1 1 2 2 2 2 2 3 2 2 2 2 2 2 2 1 0 1 1 2 1 1 1 1 1 2
5 4 4 4 4 3 2 3 2 1 1 1 1 0 1 1 2 2 1 2 1 1 1 2 2 2 1 2 2 2 1 1 2 1 0 0 0 1 0 1 1 1 1
Wind_Direction
103 103 103 100 97 94 91 87 83 80 77 74 69 66 62 59 58 55 48 44 38 35 36 35 30 24 21 18 18 18 16 13 5 354 351 356 12 25 24 21 19 26 29
109 106 102 99 95 93 90 87 83 79 75 72 68 64 62 58 54 49 43 38 33 30 30 28 25 17 15 11 6 5 4 358 347 336 331 337 10 37 33 30 32 30 32
111 112 102 95 93 90 88 85 81 77 74 70 66 62 59 55 50 43 37 32 26 22 19 17 16 7 4 360 356 353 351 344 335 327 318 305 74 62 44 37 36 34 35
106 102 97 96 92 88 85 83 80 76 72 68 64 60 56 50 42 35 29 23 19 16 12 7 4 357 352 346 344 344 342 337 329 323 321 28 63 65 50 39 35 36 38
98 96 97 95 92 89 86 83 80 75 71 67 62 57 51 44 38 32 24 17 14 9 3 2 0 350 343 337 337 338 336 331 327 314 316 48 70 64 52 42 36 37 41
103 102 102 99 96 92 89 84 80 76 70 64 57 51 45 37 32 28 22 16 10 1 357 356 353 345 336 330 330 331 329 326 319 307 342 53 84 69 53 44 38 38 42
112 113 113 109 105 100 95 89 82 77 69 61 53 45 39 33 29 24 16 10 5 358 353 349 343 336 332 328 323 321 319 317 298 290 303 77 94 78 56 46 40 41 45
115 118 122 123 120 114 105 96 88 79 70 62 54 43 30 20 18 18 21 13 3 355 349 343 338 332 324 317 311 308 307 304 310 319 314 107 101 81 58 47 44 46 49
114 126 137 143 135 127 118 111 106 97 89 81 70 45 308 280 270 272 60 30 8 354 342 335 326 318 310 300 294 291 290 290 292 285 299 106 104 86 64 51 48 52 55
123 130 140 144 141 144 138 136 137 141 149 156 194 253 263 260 245 236 163 74 7 340 325 317 306 296 290 285 278 275 275 284 266 267 218 120 108 90 68 64 58 69 69
122 126 124 120 126 142 150 149 164 173 190 202 216 242 269 266 207 209 128 136 280 294 296 294 289 284 282 274 262 260 266 255 260 247 111 120 112 100 83 87 93 98 90
140 139 125 125 135 133 113 139 173 162 173 199 121 218 296 350 342 19 133 200 255 271 278 278 280 282 273 257 241 236 246 251 275 285 120 125 117 115 105 106 114 118 114
134 125 126 140 134 133 123 117 110 134 144 105 50 26 13 3 347 26 114 194 262 270 289 295 276 275 291 301 251 222 230 264 264 92 123 122 118 118 123 127 135 133 132
115 118 107 111 122 109 91 97 169 109 78 76 43 20 42 11 343 13 358 26 336 350 353 331 313 318 337 327 322 313 300 282 291 99 137 137 133 134 148 154 149 148 144
136 132 109 88 79 94 103 257 82 92 53 69 67 358 50 31 9 2 351 22 360 360 355 342 322 344 335 320 323 330 339 327 320 75 128 149 147 149 159 166 161 158 157
144 132 122 99 88 90 112 104 79 79 125 60 59 2 44 42 17 0 357 16 13 351 338 331 327 330 314 317 320 324 323 314 324 348 160 160 166 164 167 178 174 164 164
142 128 118 113 96 71 59 41 70 66 67 63 66 15 26 43 19 27 8 4 2 348 349 344 336 335 327 324 318 311 310 317 286 278 238 169 165 173 175 182 182 172 168
135 125 126 124 112 95 76 44 34 52 45 41 53 38 15 18 26 36 14 352 350 355 353 331 348 345 339 336 330 319 323 288 264 241 238 195 167 166 173 181 180 174 171
134 136 135 125 117 106 103 105 61 66 60 47 57 53 19 11 14 25 3 345 356 4 1 344 3 347 336 329 312 304 318 322 287 277 220 191 163 155 158 172 175 174 171
139 130 124 124 122 118 113 100 88 68 46 63 69 70 41 2 8 11 348 358 11 7 358 345 347 333 321 315 324 345 320 296 310 3 40 63 38 166 154 156 162 179 177
141 135 135 142 137 119 105 94 89 83 35 76 72 73 35 11 14 0 349 348 2 6 1 356 348 336 335 335 343 336 327 336 33 40 28 50 8 48 102 134 156 164 170
140 146 148 141 134 124 120 127 132 118 109 107 88 97 44 33 22 356 359 344 350 358 10 351 350 341 333 346 346 342 341 358 7 13 21 40 50 43 103 130 134 154 158
137 144 132 132 131 127 135 115 80 81 316 88 136 123 121 94 57 6 344 339 337 2 8 353 2 357 339 330 356 18 10 349 334 343 12 31 43 39 42 78 102 94 130
129 126 131 132 132 131 133 122 143 177 163 163 147 136 210 159 130 56 329 323 329 353 15 354 14 352 344 336 337 345 327 309 353 333 342 10 28 43 34 42 62 82 89
96 98 107 119 118 124 134 140 195 301 303 352 82 118 262 180 166 161 283 307 324 351 21 0 351 351 352 353 337 333 337 343 319 157 308 338 9 18 32 70 82 72 81
83 89 93 104 105 115 139 160 185 222 266 285 268 216 270 235 191 177 204 278 308 341 3 343 329 340 335 338 335 346 353 358 335 342 318 314 347 312 349 83 119 116 101